Weather in Blagodarovka

Russia / Omsk Oblast     54°04′20″N   73°10′49″E
temp.,
°C
wind,
m/s
gust,
m/s
humid.,
%
clouds,
%
prec.,
mm/h
press.,
hPa
HPBL,
m
5 march, fri
fri500:00−2ssw71593100 0.1 1002660
03:00−3wsw91587100 0.3 1002746
06:00−7wsw81591100 0.3 1007644
09:00−10sw7158855 0.0 1009411
12:00−6sw10179268 0.1 1010882
15:00−4sw111789100 1.1 10091125
18:00−3sw101781100 1.2 10101041
21:00−3sw91782100 0.0 1011877
6 march, sat
sat600:00−4sw91686100 0.0 1012929
03:00−4sw101784100 0.1 1009958
06:00−3sw101792100 0.5 1008892
09:00−3sw101795100 1.1 1007884
12:00−1wsw10168499 1.3 1007963
15:000w7108895 0.3 1008890
18:00−4w599498 0.7 1010634
21:00−8w41088100 0.1 1012242
7 march, sun
sun700:00−14w458750 0.1 101468
03:00−16w34880 0.0 101642
06:00−16sw338841 0.0 101838
09:00−15ssw3387100 0.0 101858
12:00−10sse468182 0.0 1018202
15:00−7se61093100 0.1 1015368
18:00−2s81496100 1.4 1012686
21:000ssw81591100 0.4 1009731
8 march, mon
mon800:00+1s101888100 0.6 1007692
03:000ssw91687100 0.2 1004649
06:00−2ssw91694100 1.3 1003710
09:00−3w91196100 0.8 1003620
12:00−9wnw71188100 1.5 1007618
15:00−10w7118962 0.0 1012507
18:00−11wsw6128837 0.0 1015397
21:00−15sw469317 0.0 101888
9 march, tue
tue900:00−13ssw5109156 0.0 1018242
03:00−14ssw5118939 0.0 1019205
06:00−16ssw589222 0.0 1019137
09:00−15ssw599338 0.0 1020161
12:00−12ssw579247 0.0 1019251
15:00−8ssw7129092 0.0 1017470
18:00−8ssw6138796 0.0 1015460
21:00−11ssw6138684 0.0 1014265